sat.trackr.live / text

‹ back to catalog

KNACKSAT-2

NORAD 67683 · 1998-067XZ

PAYLOAD ACTIVE UNKNOWN

§ Identity

Operator
Country
THAI
Launch date
1998-11-20
Launch site
TYMSC
Launch vehicle
Mass (kg)
RCS (m²)

Purposes: comms, station, tech_demo

External: N2YO · Heavens-Above · Gunter

§ Orbital elements

Epoch: 2026-05-25T00:22:57.382752Z

Period
92.45 min
Inclination
51.6300°
Eccentricity
0.0011915
Mean motion
15.57682767 rev/d
Perigee alt
386.3 km
Apogee alt
402.4 km
Semi-major
6,772.5 km
B*
5.4507e-4
RAAN
50.8353°
Arg perigee
116.1156°
Mean anomaly
244.1064°
Rev number
1,666

§ Raw data

KNACKSAT-21 67683U 98067XZ  26145.01594193  .00040983  00000+0  54507-3 0  99972 67683  51.6300  50.8353 0011915 116.1156 244.1064 15.57682767 16663

JSON: /api/v1/satellites/67683 · /tle

For live sub-satellite position, see the globe view (requires WebGL).

§ Visibility from observer

Set your observer location to see the next 7 days of passes ≥ 10°. The values pass through the URL so the page stays shareable.

No JS? Fill the form by hand. The geolocation button needs JavaScript.

§ Radio — SatNOGS DB

ModeDescriptionDownlinkUplink
FSK Mode U - FSK9k6 - AX.25 G3RUH -TLM 400.630 MHz
FSK Mode V/V - FSK9k6 - Digipeater - AX.25 G3RUH 145.825 MHz 145.825 MHz

2 transmitters · refreshed weekly from db.satnogs.org